This demonstration page uses our WeatherBlox Daily Observations layout. Learn more.

Hourly Observations for October 9, 2019

Temp ( °F °C ) Dew Point ( °F °C ) Humidity (%) Winds ( mph kmh ) Pressure ( in mb ) Visibility ( mi km ) Precip ( " mm )
12:15 am 00:15 Cloudy 59 15 48 9 68 68 NNE 7 11 30.24 1024 10 16.09344 0 0
12:35 am 00:35 Cloudy 59 15 48 9 68 68 NNE 7 11 30.21 1023 10 16.09344 0 0
12:55 am 00:55 Cloudy 57 14 50 10 77 77 N 7 11 30.24 1024 10 16.09344 0 0
1:15 am 01:15 Cloudy 57 14 50 10 77 77 N 5 7 30.24 1024 10 16.09344 0 0
1:35 am 01:35 Cloudy 55 13 50 10 82 82 NNE 5 7 30.24 1024 10 16.09344 0 0
1:55 am 01:55 Cloudy 55 13 50 10 82 82 N 6 9 30.24 1024 10 16.09344 0 0
2:15 am 02:15 Cloudy 54 12 52 11 94 94 NNW 9 15 30.24 1024 10 16.09344 0 0
2:35 am 02:35 Cloudy 54 12 52 11 94 94 NNE 7 11 30.24 1024 10 16.09344 0 0
2:55 am 02:55 Cloudy 54 12 50 10 88 88 NNE 5 7 30.21 1023 10 16.09344 0 0
3:15 am 03:15 Cloudy 54 12 50 10 88 88 NNE 6 9 30.21 1023 10 16.09344 0 0
3:35 am 03:35 Cloudy 54 12 50 10 88 88 NNE 7 11 30.21 1023 10 16.09344 0 0
3:55 am 03:55 Cloudy 54 12 50 10 88 88 NNE 6 9 30.21 1023 10 16.09344 0 0
4:15 am 04:15 Cloudy 54 12 50 10 88 88 NNE 6 9 30.21 1023 10 16.09344 0 0
4:35 am 04:35 Cloudy 54 12 50 10 88 88 N 7 11 30.24 1024 10 16.09344 0 0
4:55 am 04:55 Cloudy 54 12 50 10 88 88 NNE 7 11 30.21 1023 10 16.09344 0 0
5:15 am 05:15 Cloudy 54 12 50 10 88 88 NNE 6 9 30.24 1024 10 16.09344 0 0
5:35 am 05:35 Cloudy 54 12 50 10 88 88 NNE 7 11 30.24 1024 10 16.09344 0 0
5:55 am 05:55 Cloudy 54 12 50 10 88 88 N 8 13 30.24 1024 10 16.09344 0 0
6:15 am 06:15 Mostly Cloudy 54 12 50 10 88 88 N 7 11 30.24 1024 10 16.09344 0 0
6:35 am 06:35 Clear 54 12 50 10 88 88 NNE 7 11 30.24 1024 10 16.09344 0 0
6:55 am 06:55 Partly Cloudy 54 12 50 10 88 88 NNE 8 13 30.24 1024 10 16.09344 0 0
7:15 am 07:15 Cloudy 54 12 50 10 88 88 N 7 11 30.24 1024 10 16.09344 0 0
7:35 am 07:35 Mostly Cloudy 54 12 50 10 88 88 NNE 7 11 30.3 1026 10 16.09344 0 0
7:55 am 07:55 Sunny 54 12 50 10 88 88 NNE 7 11 30.3 1026 10 16.09344 0 0
8:15 am 08:15 Sunny 54 12 50 10 88 88 NNE 7 11 30.3 1026 10 16.09344 0 0
8:35 am 08:35 Sunny 55 13 50 10 82 82 NNE 8 13 30.27 1025 10 16.09344 0 0
8:55 am 08:55 Mostly Cloudy 55 13 50 10 82 82 NE 5 7 30.27 1025 10 16.09344 0 0
9:15 am 09:15 Partly Cloudy 57 14 50 10 77 77 NE 12 19 30.27 1025 10 16.09344 0 0
9:35 am 09:35 Sunny 59 15 50 10 72 72 NNE 8 13 30.27 1025 10 16.09344 0 0
9:55 am 09:55 Sunny 59 15 50 10 72 72 NE 9 15 30.27 1025 10 16.09344 0 0
10:15 am 10:15 Sunny 59 15 50 10 72 72 NE 9 15 30.27 1025 10 16.09344 0 0
10:35 am 10:35 Sunny 61 16 50 10 68 68 NE 10 17 30.3 1026 10 16.09344 0 0
10:55 am 10:55 Sunny 61 16 50 10 68 68 NE 6 9 30.3 1026 10 16.09344 0 0
11:15 am 11:15 Partly Cloudy 63 17 52 11 68 68 E 5 7 30.27 1025 10 16.09344 0 0
11:35 am 11:35 Sunny 63 17 52 11 68 68 NE 7 11 30.27 1025 10 16.09344 0 0
11:55 am 11:55 Sunny 63 17 50 10 64 64 NE 8 13 30.27 1025 10 16.09344 0 0
12:15 pm 12:15 Sunny 63 17 50 10 64 64 NNE 3 6 30.27 1025 10 16.09344 0 0
12:35 pm 12:35 Sunny 64 18 50 10 60 60 NNE 9 15 30.27 1025 10 16.09344 0 0
12:55 pm 12:55 Sunny 64 18 50 10 60 60 NE 6 9 30.27 1025 10 16.09344 0 0
1:15 pm 13:15 Sunny 64 18 50 10 60 60 NNE 8 13 30.24 1024 10 16.09344 0 0
1:35 pm 13:35 Sunny 66 19 50 10 56 56 N 6 9 30.24 1024 10 16.09344 0 0
1:55 pm 13:55 Sunny 66 19 46 8 49 49 NNE 7 11 30.21 1023 10 16.09344 0 0
2:15 pm 14:15 Sunny 68 20 46 8 46 46 NNE 10 17 30.21 1023 10 16.09344 0 0
2:35 pm 14:35 Sunny 68 20 46 8 46 46 NE 7 11 30.21 1023 10 16.09344 0 0
2:55 pm 14:55 Sunny 68 20 46 8 46 46 NNE 8 13 30.21 1023 10 16.09344 0 0
3:15 pm 15:15 Sunny 68 20 46 8 46 46 NE 8 13 30.21 1023 10 16.09344 0 0
3:35 pm 15:35 Sunny 68 20 48 9 49 49 NE 12 19 30.21 1023 10 16.09344 0 0
3:55 pm 15:55 Sunny 68 20 48 9 49 49 NNE 12 19 30.21 1023 10 16.09344 0 0
4:15 pm 16:15 Sunny 68 20 46 8 46 46 NNE 7 11 30.21 1023 10 16.09344 0 0
4:35 pm 16:35 Sunny 68 20 45 7 43 43 ENE 12 19 30.21 1023 10 16.09344 0 0
4:55 pm 16:55 Sunny 68 20 45 7 43 43 NNE 7 11 30.21 1023 10 16.09344 0 0
5:15 pm 17:15 Sunny 68 20 46 8 46 46 NE 8 13 30.21 1023 10 16.09344 0 0
5:35 pm 17:35 Sunny 66 19 46 8 49 49 NE 9 15 30.21 1023 10 16.09344 0 0
5:55 pm 17:55 Sunny 64 18 46 8 52 52 NE 9 15 30.21 1023 10 16.09344 0 0
6:15 pm 18:15 Sunny 64 18 46 8 52 52 NE 7 11 30.21 1023 10 16.09344 0 0
6:35 pm 18:35 Sunny 63 17 46 8 56 56 NE 6 9 30.21 1023 10 16.09344 0 0
6:55 pm 18:55 Clear 63 17 48 9 59 59 NE 5 7 30.24 1024 10 16.09344 0 0
7:15 pm 19:15 Clear 61 16 48 9 63 63 NE 5 7 30.24 1024 10 16.09344 0 0
7:35 pm 19:35 Clear 61 16 50 10 68 68 NE 6 9 30.24 1024 10 16.09344 0 0
7:55 pm 19:55 Clear 59 15 50 10 72 72 NE 5 7 30.24 1024 10 16.09344 0 0
8:15 pm 20:15 Clear 59 15 50 10 72 72 NE 6 9 30.24 1024 10 16.09344 0 0
8:35 pm 20:35 Clear 59 15 50 10 72 72 ENE 7 11 30.27 1025 10 16.09344 0 0
8:55 pm 20:55 Clear 57 14 50 10 77 77 ENE 3 6 30.27 1025 10 16.09344 0 0
9:15 pm 21:15 Clear 55 13 50 10 82 82 NE 3 6 30.27 1025 10 16.09344 0 0
9:35 pm 21:35 Clear 55 13 50 10 82 82 Calm 30.27 1025 10 16.09344 0 0
9:55 pm 21:55 Clear 55 13 50 10 82 82 Calm 30.27 1025 10 16.09344 0 0
10:15 pm 22:15 Clear 55 13 50 10 82 82 NNE 5 7 30.27 1025 10 16.09344 0 0
10:35 pm 22:35 Clear 54 12 50 10 88 88 NNE 6 9 30.3 1026 10 16.09344 0 0
10:55 pm 22:55 Clear 54 12 50 10 88 88 NNE 7 11 30.3 1026 10 16.09344 0 0
11:15 pm 23:15 Mostly Cloudy 54 12 50 10 88 88 NNE 8 13 30.3 1026 10 16.09344 0 0
11:35 pm 23:35 Cloudy 54 12 50 10 88 88 NNE 6 9 30.3 1026 10 16.09344 0 0
11:55 pm 23:55 Cloudy 54 12 50 10 88 88 NNE 6 9 30.3 1026 10 16.09344 0 0

Powered by AerisWeather